Flag for United Kingdom Weather past 2 weeks in Plymouth, England, United Kingdom

Now
57 °F

Scattered clouds.


Feels Like: 54 °F
Forecast: 52 / 62 °F
Wind: 14 mph from Northwest

Location: Exeter Airport

Current Time: Sep 3, 2015 at 1:58:12 PM

Latest Report: Sep 3, 2015 at 1:20 PM


Visibility: N/A

Pressure: 30.07 "Hg

Humidity: 72%

Dew point: 48 °F

Location of PlymouthLocation

Historic Weather in Plymouth — Graph

°F

Plymouth temperature yesterday

Maximum temperature yesterday: 64 °F (at 12:50 PM)
Minimum temperature yesterday: 45 °F (at 5:50 AM)
Average temperature yesterday: 56 °F

Past Weeks' High & Low Weather Summary

 TemperatureHumidityPressure
High72 °F (Aug 22, 12:50 PM)100% (Aug 19, 12:20 PM)30.15 "Hg (Aug 19, 12:20 PM)
Low45 °F (Sep 2, 5:50 AM)56% (Aug 28, 3:20 PM)29.45 "Hg (Aug 24, 6:20 AM)
Average60 °F88%29.90 "Hg
* Reported Aug 19 12:20 PM — Sep 3 12:20 PM, Plymouth, Weather by CustomWeather, © 2015

Note: Actual official high and low records may vary slightly from our data, if they occured in-between our weather recording intervals... More about our weather records

Advertising

Plymouth weather history for previous 24 hours

 ConditionsComfort  
Time TempWeatherWind HumidityBarometerVisibility
12:20 PM
Thu, Sep 3
59 °FPassing clouds.15 mph68%30.04 "HgN/A
11:50 AM57 °FScattered clouds.16 mph72%30.04 "HgN/A
11:20 AM59 °FScattered clouds.12 mph68%30.04 "HgN/A
10:50 AM57 °FScattered clouds.10 mph77%30.04 "HgN/A
10:20 AM57 °FScattered clouds.12 mph77%30.07 "HgN/A
9:50 AM55 °FScattered clouds.9 mph82%30.07 "HgN/A
9:20 AM55 °FScattered clouds.8 mph82%30.07 "HgN/A
8:50 AM54 °FScattered clouds.7 mph94%30.07 "HgN/A
8:20 AM52 °FPassing clouds.5 mph94%30.07 "HgN/A
7:50 AM52 °FPassing clouds.3 mph94%30.07 "HgN/A
7:20 AM52 °FPassing clouds.3 mph94%30.07 "HgN/A
6:50 AM50 °FPassing clouds.1 mph100%30.07 "HgN/A
6:20 AM50 °FPassing clouds.2 mph100%30.04 "HgN/A
5:50 AM50 °FPassing clouds.3 mph100%30.07 "HgN/A
5:20 AM50 °FPassing clouds.3 mph100%30.04 "HgN/A
1:20 AM50 °FClear.3 mph88%30.09 "Hg10 mi
12:50 AM50 °FClear.6 mph94%30.09 "Hg10 mi
12:20 AM52 °FClear.6 mph88%30.09 "Hg10 mi
11:50 PM
Wed, Sep 2
50 °FPassing clouds.3 mph94%30.09 "HgN/A
11:20 PM52 °FPassing clouds.3 mph88%30.09 "HgN/A
10:50 PM52 °FPassing clouds.7 mph88%30.09 "HgN/A
10:20 PM52 °FPassing clouds.5 mph88%30.09 "HgN/A
9:50 PM52 °FPassing clouds.5 mph88%30.09 "HgN/A
9:20 PM54 °FPassing clouds.2 mph82%30.09 "HgN/A
8:50 PM54 °FPassing clouds.6 mph88%30.09 "HgN/A
8:20 PM55 °FPassing clouds.7 mph82%30.09 "HgN/A
7:50 PM57 °FPassing clouds.10 mph77%30.07 "HgN/A
7:20 PM59 °FPassing clouds.12 mph77%30.07 "HgN/A
6:50 PM59 °FPassing clouds.12 mph72%30.07 "HgN/A
6:20 PM61 °FPassing clouds.13 mph68%30.07 "HgN/A
5:50 PM61 °FPassing clouds.13 mph63%30.07 "HgN/A
5:20 PM61 °FPassing clouds.13 mph63%30.09 "HgN/A
4:50 PM63 °FPassing clouds.12 mph59%30.07 "HgN/A
4:20 PM63 °FPassing clouds.12 mph64%30.09 "HgN/A
3:50 PM63 °FPassing clouds.12 mph64%30.09 "HgN/A
3:20 PM63 °FPassing clouds.14 mph64%30.09 "HgN/A
2:50 PM61 °FPassing clouds.14 mph68%30.09 "HgN/A
2:20 PM61 °FPassing clouds.10 mph63%30.09 "HgN/A
1:50 PM64 °FPassing clouds.10 mph56%30.09 "HgN/A
1:20 PM64 °FPassing clouds.12 mph60%30.09 "HgN/A
Weather by CustomWeather, © 2015

See weather overviewHow to use our weather pages